This demonstration page uses our WeatherBlox Daily Observations layout. Learn more.

Left ArrowRight Arrow

34.74481, -87.66753

Hourly Observations for March 11, 2018

Temp ( °F °C ) Dew Point ( °F °C ) Humidity (%) Winds ( mph kmh ) Pressure ( in mb ) Visibility ( mi km ) Precip ( " mm )
12:46 am 00:46 Cloudy with Nearby Thunderstorms 56 13.3 53 11.7 90 90 WSW 5 7 29.94 1014 5 8 0.02 0.51
12:53 am 00:53 Cloudy with Nearby Thunderstorms 56 13.3 53 11.7 90 90 WSW 8 13 29.92 1013 4 6 0.03 0.76
1:01 am 01:01 Cloudy with Heavy Rain 56 13.3 53 11.7 90 90 W 10 17 29.94 1014 3 4 0.04 1.02
1:26 am 01:26 Cloudy with Rain 56 13.3 53 11.7 90 90 SSW 6 9 29.91 1013 4 6 0.15 3.81
1:53 am 01:53 Cloudy with Light Rain 55 12.8 53 11.7 93 93 SSW 6 9 29.89 1012 6 10 0.17 4.32
3:53 am 03:53 Cloudy with Light Rain 55 12.8 52 11.1 90 90 SE 15 24 29.82 1010 10 16 0.07 1.78
4:53 am 04:53 Mostly Cloudy 55 12.8 52 11.1 90 90 S 5 7 29.84 1011 10 16 0.00 0.03
5:32 am 05:32 Cloudy 55 12.8 52 11.1 90 90 N 6 9 29.88 1012 10 16 0.00 0.00
5:53 am 05:53 Cloudy 55 12.8 52 11.1 90 90 N 5 7 29.88 1012 10 16 0.00 0.00
6:53 am 06:53 Mostly Clear 54 12.2 51 10.6 90 90 ENE 7 11 29.84 1011 10 16 0.00 0.00
7:49 am 07:49 Mostly Cloudy 54 12 52 11 94 94 E 3 6 29.85 1011 10 16 0.00 0.00
7:53 am 07:53 Mostly Cloudy 55 12.8 52 11.1 90 90 ENE 5 7 29.84 1011 10 16 0.00 0.00
8:53 am 08:53 Cloudy 56 13.3 53 11.7 90 90 ENE 3 6 29.88 1012 10 16 0.00 0.00
9:53 am 09:53 Cloudy 58 14.4 53 11.7 84 84 E 3 6 29.90 1012 10 16 0.00 0.00
10:53 am 10:53 Cloudy 58 14.4 53 11.7 84 84 E 3 6 29.90 1012 10 16 0.00 0.00
11:53 am 11:53 Cloudy 59 15 53 11.7 81 81 ESE 3 6 29.88 1012 10 16 0.00 0.00
12:06 pm 12:06 Cloudy 59 15 53 11.7 81 81 E 5 7 29.85 1011 10 16 0.00 0.00
12:49 pm 12:49 Cloudy 61 16 54 12 77 77 E 5 7 29.85 1011 10 16 0.00 0.00
12:53 pm 12:53 Cloudy 59 15 53 11.7 81 81 E 5 7 29.86 1011 10 16 0.00 0.00
1:53 pm 13:53 Cloudy 60 15.6 53 11.7 78 78 SSE 6 9 29.84 1010 10 16 0.00 0.00
2:53 pm 14:53 Cloudy 59 15 53 11.7 81 81 S 3 6 29.82 1010 10 16 0.00 0.00
3:53 pm 15:53 Cloudy 59 15 54 12.2 83 83 WSW 5 7 29.80 1009 10 16 0.00 0.03
4:36 pm 16:36 Cloudy 59 15 54 12.2 83 83 W 5 7 29.80 1009 10 16 0.00 0.00
4:53 pm 16:53 Cloudy 59 15 54 12.2 83 83 WSW 8 13 29.80 1009 10 16 0.00 0.00
5:53 pm 17:53 Cloudy 59 15 55 12.8 87 87 W 9 15 29.80 1009 8 13 0.00 0.00
6:11 pm 18:11 Cloudy 58 14.4 55 12.8 90 90 W 9 15 29.80 1009 10 16 0.00 0.03
6:43 pm 18:43 Cloudy with Light Rain 51 10.6 48 8.9 89 89 NNW 18 30 29.85 1011 6 10 0.02 0.51
6:53 pm 18:53 Cloudy with Light Rain 51 10.6 47 8.3 86 86 NW 17 28 29.85 1011 8 13 0.02 0.51
7:01 pm 19:01 Cloudy with Light Rain 50 10 46 7.8 86 86 NW 12 19 29.85 1011 8 13 0.01 0.25
7:13 pm 19:13 Cloudy 50 10 45 7.2 83 83 NW 16 26 29.88 1012 10 16 0.01 0.25
7:24 pm 19:24 Cloudy 50 10 45 7.2 83 83 NW 14 22 29.88 1012 10 16 0.01 0.25
7:44 pm 19:44 Cloudy 50 10 44 6.7 80 80 NW 16 26 29.91 1013 10 16 0.01 0.25
7:53 pm 19:53 Cloudy 49 9.4 44 6.7 83 83 NW 13 20 29.90 1013 10 16 0.01 0.25
8:53 pm 20:53 Cloudy 47 8.3 42 5.6 83 83 NW 13 20 29.93 1014 10 16 0.00 0.03
9:53 pm 21:53 Cloudy 44 6.7 39 3.9 83 83 NW 15 24 29.96 1014 10 16 0.00 0.00
10:53 pm 22:53 Cloudy 42 5.6 37 2.8 82 82 NW 15 24 29.98 1015 10 16 0.00 0.00
11:53 pm 23:53 Cloudy 41 5 35 1.7 79 79 NNW 12 19 30.00 1016 10 16 0.00 0.00

Powered by AerisWeather